Tiempo cada hora Aliso Viejo

Hoy, 28 Julio, Miércoles

Tiempo Temperatura Precipitaciones Viento Presión Humedad
00:00 +24°C° 0 mm 2 mps 747 mmHg 65%
01:00 +24°C° 0 mm 2 mps 747 mmHg 66%
02:00 +23°C° 0 mm 2 mps 747 mmHg 66%
03:00 +23°C° 0 mm 2 mps 747 mmHg 65%
04:00 +23°C° 0 mm 1 mps 747 mmHg 65%
05:00 +24°C° 0 mm 1 mps 747 mmHg 61%
06:00 +25°C° 0 mm 2 mps 748 mmHg 57%
07:00 +26°C° 0 mm 2 mps 748 mmHg 53%
08:00 +28°C° 0 mm 2 mps 748 mmHg 48%
09:00 +30°C° 0 mm 3 mps 748 mmHg 43%
10:00 +33°C° 0 mm 3 mps 748 mmHg 37%
11:00 +33°C° 0 mm 4 mps 748 mmHg 36%
12:00 +34°C° 0 mm 4 mps 747 mmHg 34%
13:00 +35°C° 0 mm 4 mps 747 mmHg 32%
14:00 +34°C° 0 mm 4 mps 747 mmHg 32%
15:00 +34°C° 0 mm 4 mps 746 mmHg 33%
16:00 +33°C° 0 mm 4 mps 746 mmHg 33%
17:00 +30°C° 0 mm 3 mps 746 mmHg 38%
18:00 +29°C° 0 mm 3 mps 746 mmHg 42%
19:00 +27°C° 0 mm 2 mps 746 mmHg 47%
20:00 +26°C° 0 mm 2 mps 746 mmHg 49%
21:00 +26°C° 0 mm 1 mps 747 mmHg 51%
22:00 +25°C° 0 mm 1 mps 747 mmHg 54%
23:00 +25°C° 0 mm 1 mps 746 mmHg 55%

Mañana, 29 Julio, Jueves

Tiempo Temperatura Precipitaciones Viento Presión Humedad
00:00 +24°C° 0 mm 1 mps 746 mmHg 56%
01:00 +24°C° 0 mm 1 mps 746 mmHg 57%
02:00 +24°C° 0 mm 1 mps 746 mmHg 58%
03:00 +24°C° 0 mm 1 mps 746 mmHg 58%
04:00 +24°C° 0 mm 1 mps 745 mmHg 59%
05:00 +25°C° 0 mm 1 mps 746 mmHg 54%
06:00 +26°C° 0 mm 1 mps 746 mmHg 50%
07:00 +27°C° 0 mm 1 mps 746 mmHg 45%
08:00 +29°C° 0 mm 1 mps 746 mmHg 41%
09:00 +31°C° 0 mm 2 mps 746 mmHg 37%
10:00 +32°C° 0 mm 2 mps 746 mmHg 34%
11:00 +34°C° 0 mm 3 mps 746 mmHg 33%
12:00 +35°C° 0 mm 3 mps 745 mmHg 32%
13:00 +35°C° 0 mm 4 mps 745 mmHg 31%
14:00 +35°C° 0 mm 4 mps 745 mmHg 32%
15:00 +34°C° 0 mm 4 mps 744 mmHg 33%
16:00 +33°C° 0 mm 4 mps 744 mmHg 33%
17:00 +32°C° 0 mm 4 mps 744 mmHg 38%
18:00 +29°C° 0 mm 3 mps 744 mmHg 44%
19:00 +27°C° 0 mm 2 mps 745 mmHg 49%
20:00 +26°C° 0 mm 2 mps 745 mmHg 52%
21:00 +25°C° 0 mm 1 mps 745 mmHg 55%
22:00 +25°C° 0 mm 1 mps 745 mmHg 59%
23:00 +24°C° 0 mm 1 mps 745 mmHg 60%

Pasado mañana, 30 Julio, Viernes

Tiempo Temperatura Precipitaciones Viento Presión Humedad
00:00 +24°C° 0 mm 1 mps 745 mmHg 61%
01:00 +24°C° 0 mm 1 mps 745 mmHg 63%
02:00 +24°C° 0 mm 1 mps 745 mmHg 63%
03:00 +23°C° 0 mm 1 mps 744 mmHg 63%
04:00 +21°C° 0 mm 0 mps 744 mmHg 63%
05:00 +25°C° 0 mm 1 mps 745 mmHg 59%
06:00 +26°C° 0 mm 1 mps 745 mmHg 54%
07:00 +27°C° 0 mm 1 mps 745 mmHg 49%
08:00 +29°C° 0 mm 1 mps 746 mmHg 45%
09:00 +30°C° 0 mm 2 mps 746 mmHg 41%
10:00 +32°C° 0 mm 2 mps 746 mmHg 36%
11:00 +32°C° 0 mm 2 mps 746 mmHg 36%
12:00 +34°C° 0 mm 3 mps 746 mmHg 36%
13:00 +34°C° 0 mm 3 mps 746 mmHg 35%
14:00 +33°C° 0 mm 3 mps 746 mmHg 36%
15:00 +33°C° 0 mm 3 mps 746 mmHg 37%
16:00 +31°C° 0 mm 3 mps 746 mmHg 38%
17:00 +29°C° 0 mm 2 mps 746 mmHg 46%
18:00 +27°C° 0 mm 2 mps 747 mmHg 54%
19:00 +25°C° 0 mm 2 mps 747 mmHg 62%
20:00 +25°C° 0 mm 2 mps 747 mmHg 62%
21:00 +25°C° 0 mm 2 mps 747 mmHg 62%
22:00 +25°C° 0 mm 1 mps 748 mmHg 62%
23:00 +25°C° 0 mm 1 mps 747 mmHg 62%

31 Julio, Sábado

Tiempo Temperatura Precipitaciones Viento Presión Humedad
00:00 +24°C° 0 mm 1 mps 747 mmHg 63%
01:00 +24°C° 0 mm 1 mps 747 mmHg 64%
02:00 +24°C° 0 mm 1 mps 747 mmHg 65%
03:00 +24°C° 0 mm 1 mps 747 mmHg 65%
04:00 +24°C° 0 mm 1 mps 747 mmHg 66%
05:00 +25°C° 0 mm 1 mps 747 mmHg 61%
06:00 +26°C° 0 mm 2 mps 747 mmHg 56%
07:00 +27°C° 0 mm 2 mps 748 mmHg 52%
08:00 +29°C° 0 mm 2 mps 748 mmHg 47%
09:00 +30°C° 0 mm 3 mps 748 mmHg 42%
10:00 +33°C° 0 mm 3 mps 748 mmHg 38%
11:00 +34°C° 0 mm 4 mps 748 mmHg 36%
12:00 +34°C° 0 mm 4 mps 748 mmHg 35%
13:00 +35°C° 0 mm 5 mps 748 mmHg 33%
14:00 +34°C° 0 mm 5 mps 748 mmHg 32%
15:00 +34°C° 0 mm 5 mps 748 mmHg 31%
16:00 +33°C° 0 mm 4 mps 747 mmHg 30%
17:00 +32°C° 0 mm 4 mps 747 mmHg 35%
18:00 +29°C° 0 mm 3 mps 747 mmHg 39%
19:00 +27°C° 0 mm 2 mps 747 mmHg 44%
20:00 +26°C° 0 mm 2 mps 748 mmHg 46%
21:00 +25°C° 0 mm 2 mps 748 mmHg 48%
22:00 +24°C° 0 mm 2 mps 748 mmHg 51%
23:00 +24°C° 0 mm 1 mps 748 mmHg 52%

1 Agosto, Domingo

Tiempo Temperatura Precipitaciones Viento Presión Humedad
00:00 +23°C° 0 mm 1 mps 748 mmHg 53%
01:00 +23°C° 0 mm 1 mps 747 mmHg 54%
02:00 +23°C° 0 mm 1 mps 747 mmHg 54%
03:00 +23°C° 0 mm 1 mps 747 mmHg 54%
04:00 +23°C° 0 mm 1 mps 747 mmHg 54%
05:00 +24°C° 0 mm 1 mps 748 mmHg 50%
06:00 +25°C° 0 mm 1 mps 748 mmHg 45%
07:00 +27°C° 0 mm 1 mps 748 mmHg 41%
08:00 +29°C° 0 mm 1 mps 748 mmHg 37%
09:00 +30°C° 0 mm 2 mps 748 mmHg 33%
10:00 +33°C° 0 mm 3 mps 748 mmHg 29%
11:00 +34°C° 0 mm 3 mps 748 mmHg 28%
12:00 +34°C° 0 mm 4 mps 748 mmHg 26%
13:00 +35°C° 0 mm 5 mps 747 mmHg 25%
14:00 +35°C° 0 mm 4 mps 747 mmHg 24%
15:00 +34°C° 0 mm 4 mps 747 mmHg 23%
16:00 +34°C° 0 mm 4 mps 747 mmHg 23%
17:00 +32°C° 0 mm 4 mps 747 mmHg 28%
18:00 +29°C° 0 mm 3 mps 747 mmHg 33%
19:00 +27°C° 0 mm 2 mps 747 mmHg 38%
20:00 +26°C° 0 mm 2 mps 747 mmHg 40%
21:00 +25°C° 0 mm 2 mps 747 mmHg 42%
22:00 +24°C° 0 mm 2 mps 747 mmHg 44%
23:00 +24°C° 0 mm 1 mps 747 mmHg 45%

2 Agosto, Lunes

Tiempo Temperatura Precipitaciones Viento Presión Humedad
00:00 +24°C° 0 mm 1 mps 747 mmHg 46%
01:00 +23°C° 0 mm 1 mps 746 mmHg 48%
02:00 +23°C° 0 mm 1 mps 746 mmHg 49%
03:00 +23°C° 0 mm 1 mps 747 mmHg 51%
04:00 +22°C° 0 mm 1 mps 747 mmHg 52%
05:00 +24°C° 0 mm 1 mps 747 mmHg 48%
06:00 +25°C° 0 mm 1 mps 747 mmHg 43%
07:00 +27°C° 0 mm 1 mps 747 mmHg 38%
08:00 +29°C° 0 mm 1 mps 747 mmHg 34%
09:00 +31°C° 0 mm 2 mps 747 mmHg 30%
10:00 +33°C° 0 mm 3 mps 747 mmHg 25%
11:00 +34°C° 0 mm 3 mps 747 mmHg 25%
12:00 +35°C° 0 mm 3 mps 746 mmHg 24%
13:00 +35°C° 0 mm 4 mps 746 mmHg 24%
14:00 +35°C° 0 mm 4 mps 746 mmHg 24%
15:00 +35°C° 0 mm 4 mps 745 mmHg 25%
16:00 +34°C° 0 mm 4 mps 745 mmHg 25%
17:00 +32°C° 0 mm 4 mps 745 mmHg 30%
18:00 +29°C° 0 mm 3 mps 745 mmHg 35%
19:00 +27°C° 0 mm 2 mps 745 mmHg 40%
20:00 +26°C° 0 mm 2 mps 745 mmHg 43%
21:00 +25°C° 0 mm 2 mps 745 mmHg 46%
22:00 +24°C° 0 mm 1 mps 746 mmHg 49%
23:00 +24°C° 0 mm 1 mps 745 mmHg 51%
Mostrar más

Necesitamos Su Consentimiento

Meteoprog y nuestros Proveedores de Servicios pueden almacenar y acceder a sus datos personales como cookies, identificadores de dispositivo u otras tecnologías similares de su dispositivo y procesar dichos datos para personalizar contenido y anuncios, además de ofrecer funciones de redes sociales y analizar el tráfico.

  • Almacenar y/o acceder a información en su dispositivo

    Se puede almacenar o acceder a cookies, identificadores de dispositivo u otra información de su dispositivo para los fines anteriormente indicados.

  • Anuncios y contenido personalizados, medición de anuncios y contenido, percepciones del público, y desarrollo de productos

    Los anuncios y el contenido pueden personalizarse en base a su perfil. Se pueden añadir más datos para personalizar mejor los anuncios y contenidos. Se puede medir el rendimiento de los anuncios y contenidos. Se puede obtener la percepción sobre el público que ha visto los anuncios y contenidos. Dichos datos pueden usarse para desarrollar o mejorar la experiencia del usuario, sistemas y software.

Al hacer clic en ‘Estoy De Acuerdo’ usted permitirá el uso de las cookies, identificadores de dispositivo, balizas web u otras tecnologías similares indicadas. Su configuración puede cambiarse desde el navegador de su dispositivo.

Para ciertos fines, los intereses legítimos pueden ser considerados por encima del consentimiento. Puede leer más sobre ello en nuestra Política de Privacidad y Cookies.